Tirana, Albania

1:58 AM CET on February 11, 2016 (GMT +0100)
Tirana

Weather History for 13615 - September, 2013

Change the Weather History Date:

Monday, September 30, 2013

  Actual Average Record
Temperature  
Mean Temperature 66 °F -  
Max Temperature 71 °F 70 °F - ()
Min Temperature 60 °F 52 °F - ()
Growing Degree Days 16 (Base 50)    
Moisture  
Dew Point 61 °F    
Average Humidity 85    
Maximum Humidity 94    
Minimum Humidity 70    
Precipitation  
Precipitation 0.00 in -13.12 in - ()
Sea Level Pressure  
Sea Level Pressure 29.67 in    
Wind  
Wind Speed 5 mph ()    
Max Wind Speed 15 mph    
Max Gust Speed -    
Visibility 5.6 miles    
Events Rain , Thunderstorm    
T = Trace of Precipitation, MM = Missing Value Source: Averaged Metar Reports

Daily Weather History Graph

Daily Weather History Graph

Search for Another Location

Airport or City:

Trip Planner

Search our weather history database for the weather conditions in past years. The results will help you decide how hot, cold, wet, or windy it might be!

Date:

Astronomy

Sep. 30, 2013 Rise Set
Actual Time 6:36 AM CEST 6:24 PM CEST
Civil Twilight 6:09 AM CEST 6:52 PM CEST
Nautical Twilight 5:37 AM CEST 7:24 PM CEST
Astronomical Twilight 5:04 AM CEST 7:56 PM CEST
Moon 1:53 AM CEST (9/30) 3:47 PM CEST (9/30)
Length of Visible Light 12h 43m
Length of Day
11h 47m
Waning Crescent, 21% of the Moon is Illuminated
Sep 30
Waning Crescent
Oct 5
New
Oct 12
First Quarter
Oct 19
Full
Oct 27
Last Quarter

Hourly Weather History & Observations

Time (CEST) Temp. Dew Point Humidity Pressure Visibility Wind Dir Wind Speed Gust Speed Precip Events Conditions
12:20 AM 64.4 °F 62.6 °F 94% 29.80 in - NE 4.6 mph - N/A   Smoke
12:50 AM 64.4 °F 60.8 °F 88% 29.80 in 1.9 mi Variable 2.3 mph - N/A   Smoke
1:20 AM 64.4 °F 60.8 °F 88% 29.80 in 1.6 mi SW 2.3 mph - N/A   Smoke
1:50 AM 64.4 °F 62.6 °F 94% 29.80 in 1.9 mi SE 3.5 mph - N/A Rain Light Rain
2:20 AM 64.4 °F 62.6 °F 94% 29.80 in 1.9 mi ESE 5.8 mph - N/A   Mostly Cloudy
2:50 AM 66.2 °F 62.6 °F 88% 29.77 in 3.1 mi SSW 2.3 mph - N/A   Mostly Cloudy
3:20 AM 64.4 °F 62.6 °F 94% 29.77 in 1.9 mi South 4.6 mph - N/A   Mostly Cloudy
3:50 AM 64.4 °F 62.6 °F 94% 29.74 in - South 4.6 mph - N/A   Mostly Cloudy
4:20 AM 66.2 °F 62.6 °F 88% 29.74 in 3.7 mi South 4.6 mph - N/A   Scattered Clouds
4:50 AM 66.2 °F 62.6 °F 88% 29.74 in 5.6 mi SSE 5.8 mph - N/A Rain , Thunderstorm Light Rain
5:00 AM 66 °F 64 °F 89% 29.75 in 3 mi SE 4.5 mph - -   Scattered Clouds
5:20 AM 66.2 °F 62.6 °F 88% 29.74 in 3.1 mi SSE 4.6 mph - N/A Rain Rain
5:50 AM 66.2 °F 62.6 °F 88% 29.74 in 6.2 mi ESE 8.1 mph - N/A   Mostly Cloudy
6:20 AM 66.2 °F 62.6 °F 88% 29.71 in 6.2 mi South 3.5 mph - N/A   Overcast
6:50 AM 66.2 °F 62.6 °F 88% 29.71 in 6.2 mi SW 3.5 mph - N/A   Overcast
7:20 AM 66.2 °F 62.6 °F 88% 29.71 in 6.2 mi South 3.5 mph - N/A   Mostly Cloudy
7:50 AM 66.2 °F 62.6 °F 88% 29.68 in 6.2 mi Calm Calm - N/A   Mostly Cloudy
8:20 AM 68.0 °F 62.6 °F 83% 29.71 in 6.2 mi SW 4.6 mph - N/A   Mostly Cloudy
8:50 AM 69.8 °F 64.4 °F 83% 29.71 in 6.2 mi SSE 6.9 mph - N/A   Mostly Cloudy
9:20 AM 69.8 °F 60.8 °F 73% 29.71 in 6.2 mi SE 8.1 mph - N/A Thunderstorm Overcast
9:50 AM 66.2 °F 64.4 °F 94% 29.74 in - South 8.1 mph - N/A Rain , Thunderstorm Thunderstorms and Rain
10:20 AM 68.0 °F 64.4 °F 88% 29.71 in 6.2 mi East 5.8 mph - N/A Rain Light Rain
10:50 AM 68.0 °F 60.8 °F 78% 29.71 in 6.2 mi East 6.9 mph - N/A Rain Light Rain
11:00 AM 68 °F 64 °F 81% 29.70 in 11 mi SW 4.5 mph - -   Mostly Cloudy
11:20 AM 69.8 °F 64.4 °F 83% 29.68 in 6.2 mi South 5.8 mph - N/A   Mostly Cloudy
11:50 AM 71.6 °F 62.6 °F 73% 29.65 in 6.2 mi SSE 9.2 mph - N/A   Mostly Cloudy
12:20 PM 68.0 °F 60.8 °F 78% 29.65 in 6.2 mi SE 11.5 mph - N/A Rain Rain
12:50 PM 66.2 °F 62.6 °F 88% 29.65 in 6.2 mi SSE 8.1 mph - N/A Rain Rain
1:20 PM 68.0 °F 60.8 °F 78% 29.65 in 6.2 mi SE 15.0 mph - N/A Rain , Thunderstorm Light Rain
1:50 PM 66.2 °F 59.0 °F 78% 29.62 in 6.2 mi SE 12.7 mph - N/A Rain , Thunderstorm Rain
2:20 PM 66.2 °F 59.0 °F 78% 29.62 in 6.2 mi SSE 4.6 mph - N/A Rain , Thunderstorm Light Rain
2:50 PM 64.4 °F 60.8 °F 88% 29.59 in 6.2 mi South 8.1 mph - N/A Rain Light Rain
3:20 PM 64.4 °F 60.8 °F 88% 29.62 in 6.2 mi South 8.1 mph - N/A Rain , Thunderstorm Light Rain
3:50 PM 64.4 °F 60.8 °F 88% 29.62 in 6.2 mi SSE 15.0 mph - N/A Rain Rain
4:20 PM 66.2 °F 59.0 °F 78% 29.59 in 6.2 mi SSE 13.8 mph - N/A Rain Light Rain
4:50 PM 66.2 °F 59.0 °F 78% 29.59 in 6.2 mi South 11.5 mph - N/A   Mostly Cloudy
5:00 PM 66 °F 59 °F 70% 29.61 in 31 mi SSE 13.4 mph - -   Overcast
5:20 PM 66.2 °F 59.0 °F 78% 29.59 in 6.2 mi South 11.5 mph - N/A   Overcast
5:50 PM 66.2 °F 59.0 °F 78% 29.62 in 6.2 mi SSE 9.2 mph - N/A   Mostly Cloudy
6:20 PM 66.2 °F 59.0 °F 78% 29.59 in 6.2 mi SE 6.9 mph - N/A   Mostly Cloudy
6:50 PM 64.4 °F 57.2 °F 77% 29.59 in 6.2 mi Variable 2.3 mph - N/A   Scattered Clouds
7:20 PM 60.8 °F 59.0 °F 94% 29.59 in 6.2 mi Calm Calm - N/A   Scattered Clouds
7:50 PM 62.6 °F 60.8 °F 94% 29.59 in 6.2 mi Calm Calm - N/A   Mostly Cloudy
8:20 PM 62.6 °F 60.8 °F 94% 29.59 in 6.2 mi Calm Calm - N/A   Mostly Cloudy
8:50 PM 62.6 °F 60.8 °F 94% 29.59 in 6.2 mi SE 2.3 mph - N/A   Partly Cloudy
9:20 PM 60.8 °F 59.0 °F 94% 29.59 in 6.2 mi SSE 4.6 mph - N/A   Mostly Cloudy
9:50 PM 62.6 °F 60.8 °F 94% 29.62 in 6.2 mi Calm Calm - N/A   Mostly Cloudy
10:20 PM 64.4 °F 59.0 °F 83% 29.62 in 6.2 mi SSW 3.5 mph - N/A   Mostly Cloudy
10:50 PM 64.4 °F 59.0 °F 83% 29.62 in 6.2 mi SSE 4.6 mph - N/A   Mostly Cloudy
11:00 PM 64 °F 59 °F 80% 29.63 in 28 mi ESE 2.2 mph - -   Partly Cloudy
11:20 PM 64.4 °F 59.0 °F 83% 29.62 in 6.2 mi East 3.5 mph - N/A Thunderstorm Mostly Cloudy
11:50 PM 64.4 °F 60.8 °F 88% 29.59 in 6.2 mi ESE 2.3 mph - N/A Thunderstorm Mostly Cloudy